Regional Weather Roundup
Issued by NWS

Home | Current Version | Previous Version | Text Only | Print | Product List | Glossary Off
Versions: 1 2 3 4 5 6 7 8 9 10 11 12 13 14 15 16 17 18 19 20 21 22 23 24 25 26 27 28 29 30 31 32 33 34 35 36 37 38 39 40 41 42 43 44 45 46 47 48 49 50

000
ASUS44 KOUN 170100
RWROK

WEATHER ROUNDUP FOR OKLAHOMA
NATIONAL WEATHER SERVICE NORMAN OK
700 PM CST SAT DEC 16 2017

NOTE: "FAIR" INDICATES FEW OR NO CLOUDS BELOW 12,000 FEET WITH NO
      SIGNIFICANT WEATHER AND/OR OBSTRUCTIONS TO VISIBILITY.

OKZ001>007-009>012-014-015-017-170200-
NORTHWEST OKLAHOMA AND THE PANHANDLE

CITY           SKY/WX    TMP DP  RH WIND       PRES   REMARKS
GAGE           CLOUDY    52  24  33 S20       29.80R
GUYMON         CLEAR     50  22  33 S12       29.72S
ENID/WOODRING  PTCLDY    54  28  37 S17       29.89R
$$

OKZ016-021>023-033>039-044-045-170200-
SOUTHWEST OKLAHOMA

CITY           SKY/WX    TMP DP  RH WIND       PRES   REMARKS
LAWTON/REGL    CLOUDY    50  34  54 S21G32    29.93R
LAWTON/FT SILL CLOUDY    50  35  57 S23G31    29.91S
FREDERICK      CLOUDY    52  31  44 S15G24    29.89R
CLINTON        CLOUDY    50  25  37 S23G33    29.87S
HOBART         CLOUDY    53  27  36 S21G28    29.90R
ALTUS AFB      CLOUDY    51  29  42 S18       29.89S
$$

OKZ018>020-024>031-170200-
CENTRAL OKLAHOMA

CITY           SKY/WX    TMP DP  RH WIND       PRES   REMARKS
OKLAHOMA CITY  CLOUDY    51  29  42 S25G37    29.92S
OKC/WILEY POST CLOUDY    54  28  36 S26G32    29.91F
OKC/TINKER AFB LGT RAIN  49  34  56 S24G32    29.93R
STILLWATER     CLOUDY    56  23  27 S13       29.93R
GUTHRIE        CLOUDY    56  26  31 S22G29    29.92R
$$

OKZ008-013-054>072-170200-
NORTHEAST OKLAHOMA

CITY           SKY/WX    TMP DP  RH WIND       PRES   REMARKS
TULSA          CLOUDY    56  29  35 S12       29.98R
TULSA/JONES    CLOUDY    55  27  34 S8        29.97R
PONCA CITY     CLOUDY    57  26  30 S14G22    29.91R
BARTLESVILLE   CLOUDY    54  25  32 S8        29.96R
MUSKOGEE       PTCLDY    55  27  34 SE9       30.02R
$$

OKZ032-040>043-046>053-073>077-170200-
SOUTH CENTRAL/SOUTHEAST OKLAHOMA

CITY           SKY/WX    TMP DP  RH WIND       PRES   REMARKS
MCALESTER      LGT RAIN  52  37  56 S8G21     30.05R
$$





USA.gov is the U.S. government's official web portal to all federal, state and local government web resources and services.